Location: Banff
(51.1667°N, 115.5667°W)
Time: 06:32:02
(UTC+00:00)

S-56A Canister/Altair - Pass Details

Date: 27 November 2020
Orbit: 633 x 2499 km, 38.9° (Epoch: 21 January)

Event Time Altitude Azimuth Distance (km) Brightness Sun altitude
Rises 06:50:06 0° 257° (WSW) 4,475 - -59.1°
Reaches altitude 10° 06:54:02 10° 246° (WSW) 3,160 - -59.2°
Maximum altitude 06:59:54 26° 194° (SSW) 1,782 - -59.5°
Drops below altitude 10° 07:04:22 10° 139° (SE) 2,346 - -59.6°
Sets 07:06:50 0° 125° (SE) 3,123 - -59.7°
